Year,Month,Day,Hour,Minute,Value (Times are PST for temperature in C)
2014,02,06,00,00,-3.30
2014,02,06,00,01,-3.30
2014,02,06,00,02,-3.30
2014,02,06,00,03,-3.30
2014,02,06,00,04,-3.40
2014,02,06,00,05,-3.40
2014,02,06,00,06,-3.40
2014,02,06,00,07,-3.40
2014,02,06,00,08,-3.40
2014,02,06,00,09,-3.40
2014,02,06,00,10,-3.40
2014,02,06,00,11,-3.40
2014,02,06,00,12,-3.40
2014,02,06,00,13,-3.40
2014,02,06,00,14,-3.40
2014,02,06,00,15,-3.50
2014,02,06,00,16,-3.50
2014,02,06,00,17,-3.50
2014,02,06,00,18,-3.40
2014,02,06,00,19,-3.50
2014,02,06,00,20,-3.50
2014,02,06,00,21,-3.50
2014,02,06,00,22,-3.50
2014,02,06,00,23,-3.50
2014,02,06,00,24,-3.50
2014,02,06,00,25,-3.60
2014,02,06,00,26,-3.60
2014,02,06,00,27,-3.60
2014,02,06,00,28,-3.60
2014,02,06,00,29,-3.60
2014,02,06,00,30,-3.60
2014,02,06,00,31,-3.60
2014,02,06,00,32,-3.60
2014,02,06,00,33,-3.60
2014,02,06,00,34,-3.60
2014,02,06,00,35,-3.60
2014,02,06,00,36,-3.60
2014,02,06,00,37,-3.60
2014,02,06,00,38,-3.60
2014,02,06,00,39,-3.60
2014,02,06,00,40,-3.60
2014,02,06,00,41,-3.60
2014,02,06,00,42,-3.60
2014,02,06,00,43,-3.60
2014,02,06,00,44,-3.60
2014,02,06,00,45,-3.60
2014,02,06,00,46,-3.60
2014,02,06,00,47,-3.60
2014,02,06,00,48,-3.60
2014,02,06,00,49,-3.60
2014,02,06,00,50,-3.60
2014,02,06,00,51,-3.60
2014,02,06,00,52,-3.60
2014,02,06,00,53,-3.60
2014,02,06,00,54,-3.60
2014,02,06,00,55,-3.60
2014,02,06,00,56,-3.60
2014,02,06,00,57,-3.60
2014,02,06,00,58,-3.60
2014,02,06,00,59,-3.60
2014,02,06,01,00,-3.60
2014,02,06,01,01,-3.60
2014,02,06,01,02,-3.60
2014,02,06,01,03,-3.60
2014,02,06,01,04,-3.70
2014,02,06,01,05,-3.70
2014,02,06,01,06,-3.70
2014,02,06,01,07,-3.70
2014,02,06,01,08,-3.70
2014,02,06,01,09,-3.70
2014,02,06,01,10,-3.70
2014,02,06,01,11,-3.70
2014,02,06,01,12,-3.70
2014,02,06,01,13,-3.70
2014,02,06,01,14,-3.70
2014,02,06,01,15,-3.70
2014,02,06,01,16,-3.70
2014,02,06,01,17,-3.70
2014,02,06,01,18,-3.70
2014,02,06,01,19,-3.70
2014,02,06,01,20,-3.70
2014,02,06,01,21,-3.70
2014,02,06,01,22,-3.70
2014,02,06,01,23,-3.70
2014,02,06,01,24,-3.70
2014,02,06,01,25,-3.70
2014,02,06,01,26,-3.70
2014,02,06,01,27,-3.80
2014,02,06,01,28,-3.80
2014,02,06,01,29,-3.80
2014,02,06,01,30,-3.80
2014,02,06,01,31,-3.80
2014,02,06,01,32,-3.80
2014,02,06,01,33,-3.80
2014,02,06,01,34,-3.80
2014,02,06,01,35,-3.80
2014,02,06,01,36,-3.80
2014,02,06,01,37,-3.80
2014,02,06,01,38,-3.80
2014,02,06,01,39,-3.70
2014,02,06,01,40,-3.70
2014,02,06,01,41,-3.70
2014,02,06,01,42,-3.80
2014,02,06,01,43,-3.80
2014,02,06,01,44,-3.80
2014,02,06,01,45,-3.80
2014,02,06,01,46,-3.80
2014,02,06,01,47,-3.80
2014,02,06,01,48,-3.80
2014,02,06,01,49,-3.80
2014,02,06,01,50,-3.80
2014,02,06,01,51,-3.80
2014,02,06,01,52,-3.80
2014,02,06,01,53,-3.80
2014,02,06,01,54,-3.80
2014,02,06,01,55,-3.80
2014,02,06,01,56,-3.80
2014,02,06,01,57,-3.80
2014,02,06,01,58,-3.80
2014,02,06,01,59,-3.80
2014,02,06,02,00,-3.80
2014,02,06,02,01,-3.80
2014,02,06,02,02,-3.80
2014,02,06,02,03,-3.80
2014,02,06,02,04,-3.80
2014,02,06,02,05,-3.80
2014,02,06,02,06,-3.80
2014,02,06,02,07,-3.80
2014,02,06,02,08,-3.80
2014,02,06,02,09,-3.80
2014,02,06,02,10,-3.80
2014,02,06,02,11,-3.80
2014,02,06,02,12,-3.90
2014,02,06,02,13,-3.90
2014,02,06,02,14,-3.90
2014,02,06,02,15,-3.90
2014,02,06,02,16,-3.90
2014,02,06,02,17,-3.90
2014,02,06,02,18,-3.90
2014,02,06,02,19,-3.90
2014,02,06,02,20,-3.90
2014,02,06,02,21,-3.90
2014,02,06,02,22,-3.90
2014,02,06,02,23,-3.90
2014,02,06,02,24,-3.90
2014,02,06,02,25,-3.90
2014,02,06,02,26,-4.00
2014,02,06,02,27,-4.00
2014,02,06,02,28,-4.00
2014,02,06,02,29,-4.00
2014,02,06,02,30,-3.90
2014,02,06,02,31,-3.90
2014,02,06,02,32,-3.90
2014,02,06,02,33,-3.90
2014,02,06,02,34,-4.00
2014,02,06,02,35,-4.00
2014,02,06,02,36,-4.00
2014,02,06,02,37,-4.00
2014,02,06,02,38,-4.00
2014,02,06,02,39,-4.00
2014,02,06,02,40,-4.00
2014,02,06,02,41,-4.00
2014,02,06,02,42,-4.00
2014,02,06,02,43,-4.00
2014,02,06,02,44,-4.00
2014,02,06,02,45,-4.00
2014,02,06,02,46,-4.00
2014,02,06,02,47,-4.00
2014,02,06,02,48,-4.00
2014,02,06,02,49,-4.00
2014,02,06,02,50,-4.00
2014,02,06,02,51,-4.00
2014,02,06,02,52,-4.00
2014,02,06,02,53,-4.00
2014,02,06,02,54,-4.00
2014,02,06,02,55,-4.00
2014,02,06,02,56,-4.00
2014,02,06,02,57,-4.00
2014,02,06,02,58,-4.00
2014,02,06,02,59,-4.00
2014,02,06,03,00,-4.00
2014,02,06,03,01,-4.00
2014,02,06,03,02,-4.00
2014,02,06,03,06,-4.00
2014,02,06,03,07,-4.00
2014,02,06,03,08,-4.00
2014,02,06,03,09,-4.00
2014,02,06,03,10,-4.00
2014,02,06,03,11,-4.00
2014,02,06,03,12,-4.00
2014,02,06,03,13,-4.00
2014,02,06,03,14,-4.00
2014,02,06,03,15,-4.00
2014,02,06,03,16,-3.90
2014,02,06,03,17,-3.90
2014,02,06,03,18,-3.90
2014,02,06,03,19,-4.00
2014,02,06,03,20,-4.00
2014,02,06,03,21,-4.00
2014,02,06,03,22,-4.00
2014,02,06,03,23,-4.00
2014,02,06,03,24,-4.00
2014,02,06,03,25,-4.00
2014,02,06,03,26,-4.00
2014,02,06,03,27,-4.00
2014,02,06,03,28,-4.00
2014,02,06,03,29,-4.00
2014,02,06,03,30,-4.00
2014,02,06,03,31,-4.00
2014,02,06,03,32,-4.00
2014,02,06,03,33,-4.00
2014,02,06,03,34,-4.00
2014,02,06,03,35,-4.10
2014,02,06,03,36,-4.10
2014,02,06,03,37,-4.10
2014,02,06,03,38,-4.10
2014,02,06,03,39,-4.10
2014,02,06,03,40,-4.10
2014,02,06,03,41,-4.10
2014,02,06,03,42,-4.10
2014,02,06,03,43,-4.10
2014,02,06,03,44,-4.10
2014,02,06,03,45,-4.10
2014,02,06,03,46,-4.10
2014,02,06,03,47,-4.10
2014,02,06,03,48,-4.10
2014,02,06,03,49,-4.10
2014,02,06,03,50,-4.10
2014,02,06,03,51,-4.10
2014,02,06,03,52,-4.10
2014,02,06,03,53,-4.10
2014,02,06,03,54,-4.10
2014,02,06,03,55,-4.10
2014,02,06,03,56,-4.10
2014,02,06,03,57,-4.10
2014,02,06,03,58,-4.10
2014,02,06,03,59,-4.10
2014,02,06,04,00,-4.10
2014,02,06,04,01,-4.10
2014,02,06,04,02,-4.10
2014,02,06,04,03,-4.10
2014,02,06,04,04,-4.10
2014,02,06,04,05,-4.10
2014,02,06,04,06,-4.10
2014,02,06,04,07,-4.10
2014,02,06,04,08,-4.10
2014,02,06,04,09,-4.10
2014,02,06,04,10,-4.10
2014,02,06,04,11,-4.10
2014,02,06,04,12,-4.10
2014,02,06,04,13,-4.10
2014,02,06,04,14,-4.10
2014,02,06,04,15,-4.10
2014,02,06,04,16,-4.00
2014,02,06,04,17,-4.00
2014,02,06,04,18,-4.00
2014,02,06,04,19,-4.10
2014,02,06,04,20,-4.10
2014,02,06,04,21,-4.10
2014,02,06,04,22,-4.10
2014,02,06,04,23,-4.10
2014,02,06,04,24,-4.10
2014,02,06,04,25,-4.10
2014,02,06,04,26,-4.10
2014,02,06,04,27,-4.10
2014,02,06,04,28,-4.10
2014,02,06,04,29,-4.10
2014,02,06,04,30,-4.10
2014,02,06,04,31,-4.10
2014,02,06,04,32,-4.10
2014,02,06,04,33,-4.10
2014,02,06,04,34,-4.10
2014,02,06,04,35,-4.10
2014,02,06,04,36,-4.10
2014,02,06,04,37,-4.10
2014,02,06,04,38,-4.10
2014,02,06,04,39,-4.10
2014,02,06,04,40,-4.10
2014,02,06,04,41,-4.10
2014,02,06,04,42,-4.10
2014,02,06,04,43,-4.10
2014,02,06,04,44,-4.10
2014,02,06,04,45,-4.10
2014,02,06,04,46,-4.10
2014,02,06,04,47,-4.10
2014,02,06,04,48,-4.10
2014,02,06,04,49,-4.10
2014,02,06,04,50,-4.10
2014,02,06,04,51,-4.10
2014,02,06,04,52,-4.10
2014,02,06,04,53,-4.10
2014,02,06,04,54,-4.10
2014,02,06,04,55,-4.10
2014,02,06,04,56,-4.10
2014,02,06,04,57,-4.10
2014,02,06,04,58,-4.10
2014,02,06,04,59,-4.10
2014,02,06,05,00,-4.10
2014,02,06,05,01,-4.10
2014,02,06,05,02,-4.10
2014,02,06,05,03,-4.10
2014,02,06,05,04,-4.20
2014,02,06,05,05,-4.20
2014,02,06,05,06,-4.20
2014,02,06,05,07,-4.20
2014,02,06,05,08,-4.20
2014,02,06,05,09,-4.20
2014,02,06,05,10,-4.10
2014,02,06,05,11,-4.10
2014,02,06,05,12,-4.10
2014,02,06,05,13,-4.10
2014,02,06,05,14,-4.10
2014,02,06,05,15,-4.10
2014,02,06,05,16,-4.10
2014,02,06,05,17,-4.10
2014,02,06,05,18,-4.10
2014,02,06,05,19,-4.10
2014,02,06,05,20,-4.10
2014,02,06,05,21,-4.10
2014,02,06,05,22,-4.10
2014,02,06,05,23,-4.10
2014,02,06,05,24,-4.10
2014,02,06,05,25,-4.10
2014,02,06,05,26,-4.10
2014,02,06,05,27,-4.10
2014,02,06,05,28,-4.10
2014,02,06,05,29,-4.10
2014,02,06,05,30,-4.10
2014,02,06,05,31,-4.20
2014,02,06,05,32,-4.20
2014,02,06,05,33,-4.20
2014,02,06,05,34,-4.20
2014,02,06,05,35,-4.20
2014,02,06,05,36,-4.20
2014,02,06,05,37,-4.20
2014,02,06,05,38,-4.20
2014,02,06,05,39,-4.20
2014,02,06,05,40,-4.20
2014,02,06,05,41,-4.20
2014,02,06,05,42,-4.20
2014,02,06,05,43,-4.20
2014,02,06,05,44,-4.20
2014,02,06,05,45,-4.20
2014,02,06,05,46,-4.20
2014,02,06,05,47,-4.20
2014,02,06,05,48,-4.20
2014,02,06,05,49,-4.20
2014,02,06,05,50,-4.20
2014,02,06,05,51,-4.20
2014,02,06,05,52,-4.20
2014,02,06,05,53,-4.20
2014,02,06,05,54,-4.20
2014,02,06,05,55,-4.20
2014,02,06,05,56,-4.20
2014,02,06,05,57,-4.20
2014,02,06,05,58,-4.20
2014,02,06,05,59,-4.20
2014,02,06,06,00,-4.20
2014,02,06,06,01,-4.20
2014,02,06,06,02,-4.20
2014,02,06,06,03,-4.20
2014,02,06,06,04,-4.20
2014,02,06,06,05,-4.20
2014,02,06,06,06,-4.20
2014,02,06,06,07,-4.20
2014,02,06,06,08,-4.20
2014,02,06,06,09,-4.20
2014,02,06,06,10,-4.20
2014,02,06,06,11,-4.20
2014,02,06,06,12,-4.20
2014,02,06,06,13,-4.20
2014,02,06,06,14,-4.20
2014,02,06,06,15,-4.20
2014,02,06,06,16,-4.20
2014,02,06,06,17,-4.20
2014,02,06,06,18,-4.20
2014,02,06,06,19,-4.10
2014,02,06,06,20,-4.10
2014,02,06,06,21,-4.10
2014,02,06,06,22,-4.10
2014,02,06,06,23,-4.10
2014,02,06,06,24,-4.10
2014,02,06,06,25,-4.10
2014,02,06,06,26,-4.10
2014,02,06,06,27,-4.10
2014,02,06,06,28,-4.10
2014,02,06,06,29,-4.10
2014,02,06,06,30,-4.10
2014,02,06,06,31,-4.10
2014,02,06,06,32,-4.10
2014,02,06,06,33,-4.10
2014,02,06,06,34,-4.10
2014,02,06,06,35,-4.10
2014,02,06,06,36,-4.10
2014,02,06,06,37,-4.10
2014,02,06,06,38,-4.10
2014,02,06,06,39,-4.10
2014,02,06,06,40,-4.10
2014,02,06,06,41,-4.20
2014,02,06,06,42,-4.10
2014,02,06,06,43,-4.10
2014,02,06,06,44,-4.10
2014,02,06,06,45,-4.10
2014,02,06,06,46,-4.10
2014,02,06,06,47,-4.20
2014,02,06,06,48,-4.20
2014,02,06,06,49,-4.20
2014,02,06,06,50,-4.20
2014,02,06,06,51,-4.10
2014,02,06,06,52,-4.10
2014,02,06,06,53,-4.10
2014,02,06,06,54,-4.10
2014,02,06,06,55,-4.10
2014,02,06,06,56,-4.10
2014,02,06,06,57,-4.10
2014,02,06,06,58,-4.10
2014,02,06,06,59,-4.10
2014,02,06,07,00,-4.10
2014,02,06,07,01,-4.10
2014,02,06,07,02,-4.10
2014,02,06,07,03,-4.10
2014,02,06,07,04,-4.10
2014,02,06,07,05,-4.10
2014,02,06,07,06,-4.10
2014,02,06,07,07,-4.10
2014,02,06,07,08,-4.10
2014,02,06,07,09,-4.10
2014,02,06,07,10,-4.20
2014,02,06,07,11,-4.20
2014,02,06,07,12,-4.20
2014,02,06,07,13,-4.20
2014,02,06,07,14,-4.10
2014,02,06,07,15,-4.10
2014,02,06,07,16,-4.10
2014,02,06,07,17,-4.10
2014,02,06,07,18,-4.10
2014,02,06,07,19,-4.20
2014,02,06,07,20,-4.10
2014,02,06,07,21,-4.10
2014,02,06,07,22,-4.10
2014,02,06,07,23,-4.10
2014,02,06,07,24,-4.10
2014,02,06,07,25,-4.10
2014,02,06,07,26,-4.10
2014,02,06,07,27,-4.10
2014,02,06,07,28,-4.10
2014,02,06,07,29,-4.10
2014,02,06,07,30,-4.10
2014,02,06,07,31,-4.10
2014,02,06,07,32,-4.10
2014,02,06,07,33,-4.10
2014,02,06,07,34,-4.10
2014,02,06,07,35,-4.10
2014,02,06,07,36,-4.10
2014,02,06,07,37,-4.10
2014,02,06,07,38,-4.10
2014,02,06,07,39,-4.10
2014,02,06,07,40,-4.10
2014,02,06,07,41,-4.10
2014,02,06,07,42,-4.10
2014,02,06,07,43,-4.10
2014,02,06,07,44,-4.10
2014,02,06,07,45,-4.10
2014,02,06,07,46,-4.10
2014,02,06,07,47,-4.10
2014,02,06,07,48,-4.10
2014,02,06,07,49,-4.10
2014,02,06,07,50,-4.10
2014,02,06,07,51,-4.10
2014,02,06,07,52,-4.10
2014,02,06,07,53,-4.10
2014,02,06,07,54,-4.10
2014,02,06,07,55,-4.10
2014,02,06,07,56,-4.10
2014,02,06,07,57,-4.10
2014,02,06,07,58,-4.10
2014,02,06,07,59,-4.10
2014,02,06,08,00,-4.10
2014,02,06,08,01,-4.10
2014,02,06,08,02,-4.10
2014,02,06,08,03,-4.10
2014,02,06,08,04,-4.10
2014,02,06,08,05,-4.10
2014,02,06,08,06,-4.10
2014,02,06,08,07,-4.00
2014,02,06,08,08,-4.00
2014,02,06,08,09,-4.00
2014,02,06,08,10,-4.00
2014,02,06,08,11,-4.00
2014,02,06,08,12,-4.00
2014,02,06,08,13,-4.00
2014,02,06,08,14,-4.00
2014,02,06,08,15,-4.00
2014,02,06,08,16,-4.00
2014,02,06,08,17,-4.00
2014,02,06,08,18,-4.00
2014,02,06,08,19,-4.00
2014,02,06,08,20,-4.00
2014,02,06,08,21,-4.10
2014,02,06,08,22,-4.10
2014,02,06,08,23,-4.00
2014,02,06,08,24,-4.00
2014,02,06,08,25,-4.00
2014,02,06,08,26,-4.00
2014,02,06,08,27,-4.00
2014,02,06,08,28,-4.00
2014,02,06,08,29,-4.00
2014,02,06,08,30,-4.00
2014,02,06,08,31,-4.00
2014,02,06,08,32,-4.00
2014,02,06,08,33,-4.00
2014,02,06,08,34,-4.00
2014,02,06,08,35,-4.00
2014,02,06,08,36,-4.00
2014,02,06,08,37,-4.00
2014,02,06,08,38,-3.90
2014,02,06,08,39,-3.90
2014,02,06,08,40,-3.90
2014,02,06,08,41,-3.90
2014,02,06,08,42,-3.90
2014,02,06,08,43,-3.90
2014,02,06,08,44,-3.90
2014,02,06,08,45,-3.90
2014,02,06,08,46,-3.90
2014,02,06,08,47,-3.90
2014,02,06,08,48,-3.80
2014,02,06,08,49,-3.80
2014,02,06,08,50,-3.80
2014,02,06,08,51,-3.80
2014,02,06,08,52,-3.80
2014,02,06,08,53,-3.80
2014,02,06,08,54,-3.70
2014,02,06,08,55,-3.70
2014,02,06,08,56,-3.60
2014,02,06,08,57,-3.60
2014,02,06,08,58,-3.60
2014,02,06,08,59,-3.50
2014,02,06,09,00,-3.40
2014,02,06,09,01,-3.40
2014,02,06,09,02,-3.40
2014,02,06,09,03,-3.40
2014,02,06,09,04,-3.40
2014,02,06,09,05,-3.40
2014,02,06,09,06,-3.40
2014,02,06,09,07,-3.40
2014,02,06,09,08,-3.40
2014,02,06,09,09,-3.30
2014,02,06,09,10,-3.30
2014,02,06,09,11,-3.20
2014,02,06,09,12,-3.20
2014,02,06,09,13,-3.20
2014,02,06,09,14,-3.20
2014,02,06,09,15,-3.20
2014,02,06,09,16,-3.20
2014,02,06,09,17,-3.20
2014,02,06,09,18,-3.20
2014,02,06,09,19,-3.20
2014,02,06,09,20,-3.20
2014,02,06,09,21,-3.10
2014,02,06,09,22,-3.10
2014,02,06,09,23,-3.10
2014,02,06,09,24,-3.10
2014,02,06,09,25,-3.10
2014,02,06,09,26,-3.10
2014,02,06,09,27,-3.10
2014,02,06,09,28,-3.10
2014,02,06,09,29,-3.10
2014,02,06,09,30,-3.00
2014,02,06,09,31,-3.00
2014,02,06,09,32,-3.00
2014,02,06,09,33,-3.00
2014,02,06,09,34,-3.00
2014,02,06,09,35,-2.90
2014,02,06,09,36,-2.90
2014,02,06,09,37,-3.00
2014,02,06,09,38,-3.00
2014,02,06,09,39,-3.00
2014,02,06,09,40,-3.00
2014,02,06,09,41,-3.00
2014,02,06,09,42,-3.00
2014,02,06,09,43,-3.00
2014,02,06,09,44,-3.00
2014,02,06,09,45,-3.10
2014,02,06,09,46,-3.10
2014,02,06,09,47,-3.10
2014,02,06,09,48,-3.10
2014,02,06,09,49,-3.10
2014,02,06,09,50,-3.00
2014,02,06,09,51,-3.00
2014,02,06,09,52,-2.90
2014,02,06,09,53,-2.90
2014,02,06,09,54,-2.80
2014,02,06,09,55,-2.80
2014,02,06,09,56,-2.80
2014,02,06,09,57,-2.70
2014,02,06,09,58,-2.70
2014,02,06,09,59,-2.70
2014,02,06,10,00,-2.70
2014,02,06,10,01,-2.70
2014,02,06,10,02,-2.70
2014,02,06,10,03,-2.70
2014,02,06,10,04,-2.70
2014,02,06,10,05,-2.70
2014,02,06,10,06,-2.70
2014,02,06,10,07,-2.60
2014,02,06,10,08,-2.60
2014,02,06,10,09,-2.60
2014,02,06,10,10,-2.50
2014,02,06,10,11,-2.50
2014,02,06,10,12,-2.50
2014,02,06,10,13,-2.50
2014,02,06,10,14,-2.50
2014,02,06,10,15,-2.60
2014,02,06,10,16,-2.60
2014,02,06,10,17,-2.60
2014,02,06,10,18,-2.60
2014,02,06,10,19,-2.60
2014,02,06,10,20,-2.60
2014,02,06,10,21,-2.50
2014,02,06,10,22,-2.40
2014,02,06,10,23,-2.40
2014,02,06,10,24,-2.50
2014,02,06,10,25,-2.50
2014,02,06,10,26,-2.50
2014,02,06,10,27,-2.60
2014,02,06,10,28,-2.60
2014,02,06,10,29,-2.60
2014,02,06,10,30,-2.60
2014,02,06,10,31,-2.60
2014,02,06,10,32,-2.60
2014,02,06,10,33,-2.50
2014,02,06,10,34,-2.50
2014,02,06,10,35,-2.50
2014,02,06,10,36,-2.40
2014,02,06,10,37,-2.30
2014,02,06,10,38,-2.30
2014,02,06,10,39,-2.30
2014,02,06,10,40,-2.30
2014,02,06,10,41,-2.30
2014,02,06,10,42,-2.30
2014,02,06,10,43,-2.40
2014,02,06,10,44,-2.40
2014,02,06,10,45,-2.30
2014,02,06,10,46,-2.30
2014,02,06,10,47,-2.30
2014,02,06,10,48,-2.30
2014,02,06,10,49,-2.30
2014,02,06,10,50,-2.30
2014,02,06,10,51,-2.30
2014,02,06,10,52,-2.30
2014,02,06,10,53,-2.30
2014,02,06,10,54,-2.20
2014,02,06,10,55,-2.20
2014,02,06,10,56,-2.20
2014,02,06,10,57,-2.10
2014,02,06,10,58,-2.10
2014,02,06,10,59,-2.00
2014,02,06,11,00,-2.00
2014,02,06,11,01,-2.00
2014,02,06,11,02,-2.00
2014,02,06,11,03,-2.00
2014,02,06,11,04,-2.00
2014,02,06,11,05,-2.00
2014,02,06,11,06,-2.10
2014,02,06,11,07,-2.10
2014,02,06,11,08,-2.10
2014,02,06,11,09,-2.00
2014,02,06,11,10,-2.00
2014,02,06,11,11,-2.00
2014,02,06,11,12,-1.90
2014,02,06,11,13,-1.90
2014,02,06,11,14,-1.90
2014,02,06,11,15,-1.90
2014,02,06,11,16,-1.90
2014,02,06,11,17,-1.80
2014,02,06,11,18,-1.70
2014,02,06,11,19,-1.70
2014,02,06,11,20,-1.60
2014,02,06,11,21,-1.60
2014,02,06,11,22,-1.60
2014,02,06,11,23,-1.70
2014,02,06,11,24,-1.70
2014,02,06,11,25,-1.70
2014,02,06,11,26,-1.80
2014,02,06,11,27,-1.80
2014,02,06,11,28,-1.80
2014,02,06,11,29,-1.80
2014,02,06,11,30,-1.80
2014,02,06,11,31,-1.80
2014,02,06,11,32,-1.70
2014,02,06,11,33,-1.70
2014,02,06,11,34,-1.70
2014,02,06,11,35,-1.80
2014,02,06,11,36,-1.80
2014,02,06,11,37,-1.80
2014,02,06,11,38,-1.80
2014,02,06,11,39,-1.80
2014,02,06,11,40,-1.80
2014,02,06,11,41,-1.80
2014,02,06,11,42,-1.80
2014,02,06,11,43,-1.80
2014,02,06,11,44,-1.80
2014,02,06,11,45,-1.80
2014,02,06,11,46,-1.70
2014,02,06,11,47,-1.70
2014,02,06,11,48,-1.70
2014,02,06,11,49,-1.70
2014,02,06,11,50,-1.70
2014,02,06,11,51,-1.70
2014,02,06,11,52,-1.70
2014,02,06,11,53,-1.70
2014,02,06,11,54,-1.70
2014,02,06,11,55,-1.70
2014,02,06,11,56,-1.70
2014,02,06,11,57,-1.60
2014,02,06,11,58,-1.60
2014,02,06,11,59,-1.60
2014,02,06,12,00,-1.60
2014,02,06,12,01,-1.60
2014,02,06,12,02,-1.60
2014,02,06,12,03,-1.60
2014,02,06,12,04,-1.60
2014,02,06,12,05,-1.60
2014,02,06,12,06,-1.60
2014,02,06,12,07,-1.60
2014,02,06,12,08,-1.50
2014,02,06,12,09,-1.60
2014,02,06,12,10,-1.60
2014,02,06,12,11,-1.60
2014,02,06,12,12,-1.60
2014,02,06,12,13,-1.50
2014,02,06,12,14,-1.40
2014,02,06,12,15,-1.40
2014,02,06,12,16,-1.40
2014,02,06,12,17,-1.40
2014,02,06,12,18,-1.40
2014,02,06,12,19,-1.40
2014,02,06,12,20,-1.40
2014,02,06,12,21,-1.50
2014,02,06,12,22,-1.50
2014,02,06,12,23,-1.60
2014,02,06,12,24,-1.50
2014,02,06,12,25,-1.50
2014,02,06,12,26,-1.40
2014,02,06,12,27,-1.40
2014,02,06,12,28,-1.40
2014,02,06,12,29,-1.40
2014,02,06,12,30,-1.50
2014,02,06,12,31,-1.50
2014,02,06,12,32,-1.50
2014,02,06,12,33,-1.50
2014,02,06,12,34,-1.50
2014,02,06,12,35,-1.50
2014,02,06,12,36,-1.50
2014,02,06,12,37,-1.40
2014,02,06,12,38,-1.40
2014,02,06,12,39,-1.40
2014,02,06,12,40,-1.40
2014,02,06,12,41,-1.40
2014,02,06,12,42,-1.40
2014,02,06,12,43,-1.40
2014,02,06,12,44,-1.40
2014,02,06,12,45,-1.40
2014,02,06,12,46,-1.40
2014,02,06,12,47,-1.40
2014,02,06,12,48,-1.40
2014,02,06,12,49,-1.40
2014,02,06,12,50,-1.40
2014,02,06,12,51,-1.40
2014,02,06,12,52,-1.40
2014,02,06,12,53,-1.40
2014,02,06,12,54,-1.40
2014,02,06,12,55,-1.40
2014,02,06,12,56,-1.50
2014,02,06,12,57,-1.60
2014,02,06,12,58,-1.60
2014,02,06,12,59,-1.70
2014,02,06,13,00,-1.70
2014,02,06,13,01,-1.70
2014,02,06,13,02,-1.70
2014,02,06,13,03,-1.70
2014,02,06,13,04,-1.60
2014,02,06,13,05,-1.60
2014,02,06,13,06,-1.60
2014,02,06,13,07,-1.60
2014,02,06,13,08,-1.60
2014,02,06,13,09,-1.60
2014,02,06,13,10,-1.50
2014,02,06,13,11,-1.50
2014,02,06,13,12,-1.50
2014,02,06,13,13,-1.40
2014,02,06,13,14,-1.40
2014,02,06,13,15,-1.40
2014,02,06,13,16,-1.40
2014,02,06,13,17,-1.40
2014,02,06,13,18,-1.40
2014,02,06,13,19,-1.30
2014,02,06,13,20,-1.30
2014,02,06,13,21,-1.30
2014,02,06,13,22,-1.30
2014,02,06,13,23,-1.40
2014,02,06,13,24,-1.40
2014,02,06,13,25,-1.30
2014,02,06,13,26,-1.30
2014,02,06,13,27,-1.30
2014,02,06,13,28,-1.20
2014,02,06,13,29,-1.20
2014,02,06,13,30,-1.20
2014,02,06,13,31,-1.20
2014,02,06,13,32,-1.20
2014,02,06,13,33,-1.20
2014,02,06,13,34,-1.20
2014,02,06,13,35,-1.20
2014,02,06,13,36,-1.20
2014,02,06,13,37,-1.20
2014,02,06,13,38,-1.20
2014,02,06,13,39,-1.20
2014,02,06,13,40,-1.20
2014,02,06,13,41,-1.20
2014,02,06,13,42,-1.20
2014,02,06,13,43,-1.20
2014,02,06,13,44,-1.20
2014,02,06,13,45,-1.20
2014,02,06,13,46,-1.20
2014,02,06,13,47,-1.20
2014,02,06,13,48,-1.20
2014,02,06,13,49,-1.20
2014,02,06,13,50,-1.20
2014,02,06,13,51,-1.20
2014,02,06,13,52,-1.20
2014,02,06,13,53,-1.20
2014,02,06,13,54,-1.20
2014,02,06,13,55,-1.20
2014,02,06,13,56,-1.20
2014,02,06,13,57,-1.20
2014,02,06,13,58,-1.20
2014,02,06,13,59,-1.20
2014,02,06,14,00,-1.20
2014,02,06,14,01,-1.20
2014,02,06,14,02,-1.20
2014,02,06,14,03,-1.20
2014,02,06,14,04,-1.20
2014,02,06,14,05,-1.20
2014,02,06,14,06,-1.20
2014,02,06,14,07,-1.20
2014,02,06,14,08,-1.20
2014,02,06,14,09,-1.20
2014,02,06,14,10,-1.20
2014,02,06,14,11,-1.20
2014,02,06,14,12,-1.20
2014,02,06,14,13,-1.20
2014,02,06,14,14,-1.30
2014,02,06,14,15,-1.30
2014,02,06,14,16,-1.30
2014,02,06,14,17,-1.20
2014,02,06,14,18,-1.20
2014,02,06,14,19,-1.20
2014,02,06,14,20,-1.20
2014,02,06,14,21,-1.20
2014,02,06,14,22,-1.20
2014,02,06,14,23,-1.20
2014,02,06,14,24,-1.20
2014,02,06,14,25,-1.20
2014,02,06,14,26,-1.20
2014,02,06,14,27,-1.10
2014,02,06,14,28,-1.10
2014,02,06,14,29,-1.10
2014,02,06,14,30,-1.10
2014,02,06,14,31,-1.10
2014,02,06,14,32,-1.10
2014,02,06,14,33,-1.10
2014,02,06,14,34,-1.10
2014,02,06,14,35,-1.10
2014,02,06,14,36,-1.10
2014,02,06,14,37,-1.10
2014,02,06,14,38,-1.10
2014,02,06,14,39,-1.10
2014,02,06,14,40,-1.00
2014,02,06,14,41,-1.00
2014,02,06,14,42,-1.00
2014,02,06,14,43,-0.90
2014,02,06,14,44,-0.90
2014,02,06,14,45,-0.90
2014,02,06,14,46,-0.90
2014,02,06,14,47,-0.90
2014,02,06,14,48,-0.90
2014,02,06,14,49,-0.90
2014,02,06,14,50,-0.90
2014,02,06,14,51,-0.90
2014,02,06,14,52,-0.90
2014,02,06,14,53,-0.90
2014,02,06,14,54,-0.90
2014,02,06,14,55,-0.80
2014,02,06,14,56,-0.80
2014,02,06,14,57,-0.80
2014,02,06,14,58,-0.80
2014,02,06,14,59,-0.80
2014,02,06,15,00,-0.90
2014,02,06,15,01,-0.90
2014,02,06,15,02,-0.90
2014,02,06,15,03,-0.90
2014,02,06,15,04,-0.90
2014,02,06,15,05,-0.90
2014,02,06,15,06,-0.90
2014,02,06,15,07,-0.90
2014,02,06,15,08,-0.90
2014,02,06,15,09,-1.00
2014,02,06,15,10,-1.00
2014,02,06,15,11,-1.00
2014,02,06,15,12,-1.00
2014,02,06,15,13,-1.00
2014,02,06,15,14,-1.00
2014,02,06,15,15,-1.00
2014,02,06,15,16,-1.00
2014,02,06,15,17,-0.90
2014,02,06,15,18,-0.90
2014,02,06,15,19,-0.90
2014,02,06,15,20,-0.90
2014,02,06,15,21,-0.90
2014,02,06,15,22,-0.90
2014,02,06,15,23,-0.90
2014,02,06,15,24,-0.90
2014,02,06,15,25,-0.90
2014,02,06,15,26,-0.90
2014,02,06,15,27,-0.90
2014,02,06,15,28,-0.90
2014,02,06,15,29,-0.90
2014,02,06,15,30,-0.80
2014,02,06,15,31,-0.80
2014,02,06,15,32,-0.80
2014,02,06,15,33,-0.90
2014,02,06,15,34,-0.80
2014,02,06,15,35,-0.80
2014,02,06,15,36,-0.80
2014,02,06,15,37,-0.80
2014,02,06,15,38,-0.80
2014,02,06,15,39,-0.70
2014,02,06,15,40,-0.70
2014,02,06,15,41,-0.70
2014,02,06,15,42,-0.70
2014,02,06,15,43,-0.70
2014,02,06,15,44,-0.70
2014,02,06,15,45,-0.70
2014,02,06,15,46,-0.60
2014,02,06,15,47,-0.60
2014,02,06,15,48,-0.60
2014,02,06,15,49,-0.60
2014,02,06,15,50,-0.60
2014,02,06,15,51,-0.60
2014,02,06,15,52,-0.60
2014,02,06,15,53,-0.60
2014,02,06,15,54,-0.60
2014,02,06,15,55,-0.60
2014,02,06,15,56,-0.60
2014,02,06,15,57,-0.60
2014,02,06,15,58,-0.70
2014,02,06,15,59,-0.70
2014,02,06,16,00,-0.70
2014,02,06,16,01,-0.70
2014,02,06,16,02,-0.70
2014,02,06,16,03,-0.70
2014,02,06,16,04,-0.70
2014,02,06,16,05,-0.70
2014,02,06,16,06,-0.70
2014,02,06,16,07,-0.70
2014,02,06,16,08,-0.70
2014,02,06,16,09,-0.70
2014,02,06,16,10,-0.60
2014,02,06,16,11,-0.60
2014,02,06,16,12,-0.60
2014,02,06,16,13,-0.70
2014,02,06,16,14,-0.70
2014,02,06,16,15,-0.70
2014,02,06,16,16,-0.70
2014,02,06,16,17,-0.60
2014,02,06,16,18,-0.60
2014,02,06,16,19,-0.60
2014,02,06,16,20,-0.60
2014,02,06,16,21,-0.60
2014,02,06,16,22,-0.60
2014,02,06,16,23,-0.60
2014,02,06,16,24,-0.60
2014,02,06,16,25,-0.60
2014,02,06,16,26,-0.60
2014,02,06,16,27,-0.60
2014,02,06,16,28,-0.60
2014,02,06,16,29,-0.60
2014,02,06,16,30,-0.60
2014,02,06,16,31,-0.70
2014,02,06,16,32,-0.70
2014,02,06,16,33,-0.70
2014,02,06,16,34,-0.70
2014,02,06,16,35,-0.70
2014,02,06,16,36,-0.70
2014,02,06,16,37,-0.70
2014,02,06,16,38,-0.70
2014,02,06,16,39,-0.70
2014,02,06,16,40,-0.70
2014,02,06,16,41,-0.70
2014,02,06,16,42,-0.70
2014,02,06,16,43,-0.70
2014,02,06,16,44,-0.70
2014,02,06,16,45,-0.70
2014,02,06,16,46,-0.70
2014,02,06,16,47,-0.70
2014,02,06,16,48,-0.70
2014,02,06,16,49,-0.70
2014,02,06,16,50,-0.70
2014,02,06,16,51,-0.70
2014,02,06,16,52,-0.70
2014,02,06,16,53,-0.70
2014,02,06,16,54,-0.70
2014,02,06,16,55,-0.70
2014,02,06,16,56,-0.70
2014,02,06,16,57,-0.70
2014,02,06,16,58,-0.70
2014,02,06,16,59,-0.70
2014,02,06,17,00,-0.70
2014,02,06,17,01,-0.70
2014,02,06,17,02,-0.70
2014,02,06,17,03,-0.70
2014,02,06,17,04,-0.70
2014,02,06,17,05,-0.70
2014,02,06,17,06,-0.70
2014,02,06,17,07,-0.70
2014,02,06,17,08,-0.70
2014,02,06,17,09,-0.70
2014,02,06,17,10,-0.70
2014,02,06,17,11,-0.70
2014,02,06,17,12,-0.70
2014,02,06,17,13,-0.70
2014,02,06,17,14,-0.70
2014,02,06,17,15,-0.70
2014,02,06,17,16,-0.70
2014,02,06,17,17,-0.70
2014,02,06,17,18,-0.70
2014,02,06,17,19,-0.70
2014,02,06,17,20,-0.70
2014,02,06,17,21,-0.70
2014,02,06,17,22,-0.70